EW5773 Weather Reports


time (UTC)temp
F
wind
direction
speed
knots
gust
knots
rain 1hr
in
rain 24hr
in
rain mn
in
humidity
%
barometer
mb
20260506094507 49 5 5.2 13.0 0.00 1.01 0.13 92 1010.4
20260506093006 49 10 7.0 11.3 0.00 1.01 0.13 93 1010.3
20260506091508 49 355 4.3 11.3 0.00 1.01 0.13 94 1010.2
20260506090004 48 303 7.8 10.4 0.00 1.01 0.13 94 1010.1
20260506084503 48 344 5.2 12.2 0.00 1.05 0.13 95 1009.9
20260506083105 48 355 6.1 9.6 0.00 1.05 0.13 95 1009.7
20260506081521 47 317 4.3 12.2 0.00 1.05 0.13 96 1009.5
20260506073014 47 344 7.8 12.2 0.00 1.08 0.13 96 1009.1
20260506071510 47 348 4.3 10.4 0.01 1.08 0.13 96 1009.0
20260506061506 47 330 5.2 11.3 0.00 1.07 0.12 96 1008.5
20260506044511 47 300 6.1 11.3 0.02 1.06 0.11 96 1007.7
20260506043013 47 305 4.3 10.4 0.02 1.06 0.10 96 1007.6
20260506041508 47 309 4.3 8.7 0.02 1.06 0.10 96 1007.6
20260506040019 47 321 5.2 11.3 0.02 1.05 0.09 96 1007.6
20260506034505 47 309 6.1 12.2 0.02 1.05 0.09 96 1007.6
20260506033104 48 342 3.5 12.2 0.02 1.04 0.09 96 1007.6
20260506031536 48 350 6.1 10.4 0.02 1.04 0.09 96 1007.6
20260506030013 48 319 3.5 7.8 0.02 1.03 0.08 96 1007.6
20260506024518 48 342 2.6 7.8 0.02 1.02 0.07 96 1007.6
20260506023011 48 336 3.5 8.7 0.02 1.02 0.07 96 1007.6
20260506021512 49 360 5.2 10.4 0.02 1.02 0.06 96 1007.7
20260506020006 49 326 3.5 10.4 0.02 1.02 0.06 96 1007.6
20260506014510 49 310 4.3 8.7 0.02 1.01 0.06 97 1007.6
20260506013012 50 315 3.5 8.7 0.02 1.00 0.05 97 1007.5
20260506011512 50 302 5.2 10.4 0.02 1.00 0.05 96 1007.6
20260506010030 50 317 5.2 10.4 0.02 1.00 0.05 97 1007.5
20260506004511 50 325 3.5 7.0 0.02 0.99 0.04 97 1007.6
20260506003008 50 298 3.5 7.8 0.01 0.98 0.03 97 1007.7
20260506001505 50 312 3.5 7.0 0.01 0.98 0.03 96 1007.6
20260506000013 50 310 1.7 4.3 0.01 0.98 0.03 96 1007.7
20260505234525 50 309 2.6 7.0 0.00 0.98 0.02 96 1007.8
20260505233017 50 313 4.3 7.8 0.01 0.98 0.02 96 1007.8
20260505231520 50 300 4.3 8.7 0.02 0.98 0.02 96 1007.8
20260505230022 50 304 3.5 7.8 0.02 0.98 0.02 96 1007.8
20260505224518 50 321 2.6 5.2 0.04 0.98 0.02 96 1007.8
20260505223017 50 308 4.3 11.3 0.04 0.97 0.02 97 1007.7
20260505221529 50 306 5.2 12.2 0.05 0.96 0.01 96 1007.7
20260505220016 50 311 7.0 13.0 0.06 0.95 0.00 96 1007.8
20260505214546 50 309 7.0 11.3 0.05 0.94 0.94 96 1007.7
20260505213018 50 275 5.2 10.4 0.07 0.93 0.93 96 1007.8
20260505211606 51 289 5.2 9.6 0.07 0.91 0.91 96 1008.0
20260505210004 51 294 6.1 9.6 0.09 0.90 0.90 96 1008.1
20260505204505 51 309 4.3 9.6 0.09 0.90 0.89 96 1008.2
20260505203005 51 305 5.2 8.7 0.09 0.87 0.86 97 1008.1
20260505201517 51 290 2.6 7.0 0.12 0.85 0.84 97 1008.0
20260505200033 51 295 1.7 6.1 0.12 0.82 0.81 97 1007.9
20260505194518 51 301 0.9 7.8 0.13 0.83 0.80 97 1007.7
20260505193058 51 303 2.6 7.8 0.11 0.80 0.76 96 1007.5
20260505191511 51 291 3.5 7.0 0.09 0.76 0.72 96 1007.4
20260505190009 51 297 2.6 8.7 0.07 0.73 0.69 96 1007.3
20260505184509 51 306 4.3 8.7 0.07 0.71 0.67 96 1007.3
20260505183008 51 304 4.3 7.8 0.08 0.69 0.65 96 1007.0
20260505181507 51 306 5.2 9.6 0.07 0.68 0.64 96 1006.9
20260505180009 51 308 7.0 10.4 0.07 0.66 0.62 96 1007.0
20260505174517 51 305 4.3 8.7 0.06 0.64 0.60 96 1007.0
20260505173019 51 305 5.2 7.8 0.03 0.61 0.56 96 1007.1
20260505171522 51 314 5.2 8.7 0.03 0.61 0.56 96 1007.0
20260505170019 51 315 4.3 9.6 0.02 0.59 0.55 96 1007.1
20260505164512 52 303 4.3 8.7 0.02 0.65 0.54 96 1007.2
20260505163051 52 310 6.1 11.3 0.03 0.65 0.54 96 1007.1
20260505161507 52 325 3.5 9.6 0.04 0.64 0.54 96 1007.1
20260505153004 52 300 4.3 13.0 0.08 0.64 0.51 96 1006.8
20260505151519 52 325 7.0 12.2 0.09 0.62 0.50 96 1006.8
20260505124612 53 355 4.3 13.0 0.05 0.46 0.24 96 1006.7
20260505123018 53 308 6.1 11.3 0.05 0.44 0.22 96 1006.8
20260505121517 53 28 6.1 13.0 0.04 0.43 0.20 96 1006.7
20260505120017 53 347 7.0 15.6 0.04 0.42 0.20 96 1006.8
20260505114513 54 327 7.8 13.0 0.04 0.46 0.18 96 1006.8
20260505113012 53 335 5.2 11.3 0.04 0.45 0.17 96 1006.8
20260505111513 53 318 4.3 11.3 0.04 0.44 0.17 96 1007.0
20260505101504 54 15 6.1 11.3 0.05 0.40 0.13 96 1007.3
20260505100104 54 10 6.1 11.3 0.05 0.39 0.12 96 1007.4